Location: Carrigahorig
(53.0625°N, 8.1439°W)
Time: 03:07:24
(UTC+00:00)

Helios 1A - Pass Details

Date: 15 May 2026
Orbit: 540 x 559 km, 98.2° (Epoch: 8 June)

Event Time Altitude Azimuth Distance (km) Brightness Sun altitude
Rises 23:45:33 0° 10° (N) 2,720 7.7 -17.3°
Reaches altitude 10° 23:47:45 10° 4° (N) 1,820 6.7 -17.3°
Maximum altitude 23:51:28 43° 292° (WNW) 774 3.8 -17.4°
Enters shadow 23:53:51 20° 230° (SW) 1,303 4.4 -17.5°
